| time (UTC) | temp F | wind direction | speed MPH | gust MPH | rain 1hr in | rain 24hr in | rain mn in | humidity % | barometer mb |
| 20260504185507 | 73 | 199 | 4.0 | 7.0 | 0.00 | 0.00 | 0.00 | 31 | 1009.2 |
| 20260504185003 | 74 | 257 | 4.0 | 6.0 | 0.00 | 0.00 | 0.00 | 29 | 1009.4 |
| 20260504184458 | 73 | 212 | 6.0 | 9.0 | 0.00 | 0.00 | 0.00 | 31 | 1009.6 |
| 20260504183954 | 73 | 215 | 3.0 | 8.0 | 0.00 | 0.00 | 0.00 | 31 | 1009.3 |
| 20260504183452 | 73 | 248 | 1.0 | 5.0 | 0.00 | 0.00 | 0.00 | 30 | 1009.4 |
| 20260504182949 | 74 | 216 | 10.0 | 10.0 | 0.00 | 0.00 | 0.00 | 29 | 1009.5 |
| 20260504182446 | 73 | 340 | 2.0 | 6.0 | 0.00 | 0.00 | 0.00 | 29 | 1009.6 |
| 20260504181943 | 73 | 257 | 6.0 | 6.0 | 0.00 | 0.00 | 0.00 | 32 | 1009.7 |
| 20260504181440 | 73 | 11 | 2.0 | 6.0 | 0.00 | 0.00 | 0.00 | 30 | 1009.5 |
| 20260504180939 | 74 | 201 | 5.0 | 7.0 | 0.00 | 0.00 | 0.00 | 29 | 1009.5 |
| 20260504180437 | 72 | 197 | 3.0 | 4.0 | 0.00 | 0.00 | 0.00 | 31 | 1009.8 |
| 20260504175936 | 69 | 221 | 2.0 | 5.0 | 0.00 | 0.00 | 0.00 | 33 | 1009.8 |
| 20260504175432 | 72 | 158 | 6.0 | 6.0 | 0.00 | 0.00 | 0.00 | 32 | 1009.9 |
| 20260504174930 | 72 | 201 | 2.0 | 6.0 | 0.00 | 0.00 | 0.00 | 31 | 1010.1 |
| 20260504174427 | 72 | 153 | 5.0 | 7.0 | 0.00 | 0.00 | 0.00 | 30 | 1009.9 |
| 20260504173924 | 72 | 183 | 3.0 | 9.0 | 0.00 | 0.00 | 0.00 | 32 | 1009.9 |
| 20260504173420 | 72 | 165 | 5.0 | 6.0 | 0.00 | 0.00 | 0.00 | 30 | 1010.0 |
| 20260504172918 | 72 | 165 | 6.0 | 11.0 | 0.00 | 0.00 | 0.00 | 31 | 1009.9 |
| 20260504172414 | 72 | 202 | 6.0 | 6.0 | 0.00 | 0.00 | 0.00 | 31 | 1010.0 |
| 20260504171911 | 72 | 208 | 3.0 | 10.0 | 0.00 | 0.00 | 0.00 | 30 | 1010.2 |
| 20260504171408 | 72 | 203 | 5.0 | 7.0 | 0.00 | 0.00 | 0.00 | 30 | 1010.1 |
| 20260504170905 | 71 | 198 | 4.0 | 10.0 | 0.00 | 0.00 | 0.00 | 31 | 1010.0 |
| 20260504170401 | 70 | 186 | 3.0 | 8.0 | 0.00 | 0.00 | 0.00 | 32 | 1010.4 |
| 20260504160320 | 68 | 215 | 4.0 | 6.0 | 0.00 | 0.00 | 0.00 | 32 | 1011.1 |
| 20260504150745 | 63 | 194 | 2.0 | 3.0 | 0.00 | 0.00 | 0.00 | 35 | 1012.1 |
| 20260504150242 | 63 | 199 | 3.0 | 9.0 | 0.00 | 0.00 | 0.00 | 34 | 1012.0 |
| 20260504141211 | 61 | 193 | 4.0 | 6.0 | 0.00 | 0.00 | 0.00 | 35 | 1012.1 |
| 20260504140708 | 62 | 189 | 2.0 | 4.0 | 0.00 | 0.00 | 0.00 | 35 | 1012.4 |
| 20260504140203 | 61 | 160 | 2.0 | 6.0 | 0.00 | 0.00 | 0.00 | 35 | 1012.2 |
| 20260504130632 | 58 | 165 | 3.0 | 4.0 | 0.00 | 0.00 | 0.00 | 40 | 1012.7 |
| 20260504130128 | 57 | 183 | 3.0 | 4.0 | 0.00 | 0.00 | 0.00 | 38 | 1012.6 |
| 20260504110520 | 47 | 98 | 2.0 | 5.0 | 0.00 | 0.00 | 0.00 | 56 | 1013.2 |
| 20260504100442 | 43 | 66 | 0.0 | 0.0 | 0.00 | 0.00 | 0.00 | 60 | 1012.9 |
| 20260504081835 | 44 | 89 | 0.0 | 4.0 | 0.00 | 0.00 | 0.00 | 58 | 1013.1 |
| 20260504081331 | 44 | 107 | 2.0 | 3.0 | 0.00 | 0.00 | 0.00 | 58 | 1013.2 |
| 20260504080827 | 44 | 93 | 1.0 | 2.0 | 0.00 | 0.00 | 0.00 | 57 | 1013.4 |
| 20260504080325 | 45 | 162 | 1.0 | 4.0 | 0.00 | 0.00 | 0.00 | 57 | 1013.4 |
| 20260504070252 | 48 | 76 | 0.0 | 2.0 | 0.00 | 0.00 | 0.00 | 49 | 1012.9 |
| 20260504060213 | 49 | 83 | 2.0 | 3.0 | 0.00 | 0.00 | 0.00 | 47 | 1013.1 |
| 20260504050640 | 49 | 119 | 2.0 | 3.0 | 0.00 | 0.00 | 0.00 | 47 | 1013.1 |
| 20260504050137 | 49 | 76 | 1.0 | 4.0 | 0.00 | 0.00 | 0.00 | 46 | 1013.2 |
| 20260504045634 | 49 | 114 | 3.0 | 3.0 | 0.00 | 0.00 | 0.00 | 46 | 1012.9 |
| 20260504045134 | 49 | 127 | 2.0 | 2.0 | 0.00 | 0.00 | 0.00 | 45 | 1013.1 |
| 20260504044632 | 50 | 125 | 2.0 | 2.0 | 0.00 | 0.00 | 0.00 | 45 | 1013.1 |
| 20260504044129 | 49 | 95 | 2.0 | 3.0 | 0.00 | 0.00 | 0.00 | 45 | 1013.1 |
| 20260504043626 | 49 | 145 | 1.0 | 2.0 | 0.00 | 0.00 | 0.00 | 45 | 1013.0 |
| 20260504043123 | 49 | 118 | 2.0 | 2.0 | 0.00 | 0.00 | 0.00 | 46 | 1013.1 |
| 20260504042620 | 49 | 62 | 0.0 | 3.0 | 0.00 | 0.00 | 0.00 | 45 | 1012.9 |
| 20260504042117 | 50 | 118 | 1.0 | 2.0 | 0.00 | 0.00 | 0.00 | 46 | 1012.8 |
| 20260504041613 | 49 | 101 | 1.0 | 2.0 | 0.00 | 0.00 | 0.00 | 45 | 1012.8 |
| 20260504041109 | 49 | 93 | 1.0 | 2.0 | 0.00 | 0.00 | 0.00 | 45 | 1012.8 |
| 20260504040607 | 49 | 77 | 1.0 | 2.0 | 0.00 | 0.00 | 0.00 | 45 | 1013.0 |
| 20260504040103 | 49 | 44 | 0.0 | 1.0 | 0.00 | 0.00 | 0.00 | 45 | 1013.0 |
| 20260504035600 | 49 | 103 | 1.0 | 2.0 | 0.00 | 0.00 | 0.00 | 44 | 1012.7 |
| 20260504035056 | 49 | 112 | 1.0 | 4.0 | 0.00 | 0.00 | 0.00 | 45 | 1012.9 |
| 20260504034554 | 49 | 61 | 1.0 | 3.0 | 0.00 | 0.00 | 0.00 | 44 | 1012.9 |
| 20260504034051 | 49 | 5 | 1.0 | 2.0 | 0.00 | 0.00 | 0.00 | 46 | 1012.8 |
| 20260504033549 | 49 | 109 | 1.0 | 2.0 | 0.00 | 0.00 | 0.00 | 44 | 1012.9 |
| 20260504033046 | 49 | 126 | 1.0 | 2.0 | 0.00 | 0.00 | 0.00 | 44 | 1012.8 |
| 20260504032543 | 49 | 113 | 0.0 | 1.0 | 0.00 | 0.00 | 0.00 | 44 | 1012.7 |
| 20260504032040 | 49 | 97 | 1.0 | 2.0 | 0.00 | 0.00 | 0.00 | 44 | 1012.8 |
| 20260504031537 | 49 | 89 | 2.0 | 2.0 | 0.00 | 0.00 | 0.00 | 44 | 1013.0 |
| 20260504031033 | 49 | 133 | 1.0 | 2.0 | 0.00 | 0.00 | 0.00 | 44 | 1012.8 |
| 20260504030530 | 49 | 66 | 0.0 | 2.0 | 0.00 | 0.00 | 0.00 | 44 | 1012.8 |
| 20260504030026 | 49 | 114 | 3.0 | 4.0 | 0.00 | 0.00 | 0.00 | 44 | 1012.8 |
| 20260504025524 | 49 | 107 | 2.0 | 2.0 | 0.00 | 0.00 | 0.00 | 44 | 1012.9 |
| 20260504025020 | 50 | 99 | 2.0 | 2.0 | 0.00 | 0.00 | 0.00 | 44 | 1012.8 |
| 20260504024517 | 50 | 108 | 2.0 | 3.0 | 0.00 | 0.00 | 0.00 | 43 | 1012.9 |
| 20260504024014 | 50 | 98 | 3.0 | 4.0 | 0.00 | 0.00 | 0.00 | 43 | 1013.0 |
| 20260504023511 | 50 | 46 | 2.0 | 2.0 | 0.00 | 0.00 | 0.00 | 43 | 1012.9 |
| 20260504023007 | 50 | 115 | 1.0 | 2.0 | 0.00 | 0.00 | 0.00 | 43 | 1012.7 |
| 20260504022503 | 50 | 88 | 2.0 | 2.0 | 0.00 | 0.00 | 0.00 | 44 | 1012.9 |
| 20260504021959 | 50 | 89 | 2.0 | 2.0 | 0.00 | 0.00 | 0.00 | 43 | 1012.8 |
| 20260504021457 | 50 | 99 | 2.0 | 3.0 | 0.00 | 0.00 | 0.00 | 43 | 1013.0 |
| 20260504020954 | 50 | 110 | 0.0 | 1.0 | 0.00 | 0.00 | 0.00 | 43 | 1013.0 |
| 20260504020450 | 50 | 67 | 1.0 | 2.0 | 0.00 | 0.00 | 0.00 | 43 | 1012.9 |
| 20260504015947 | 50 | 111 | 1.0 | 2.0 | 0.00 | 0.00 | 0.00 | 43 | 1012.9 |
| 20260504015443 | 50 | 118 | 2.0 | 2.0 | 0.00 | 0.00 | 0.00 | 43 | 1012.9 |
| 20260504014939 | 50 | 93 | 2.0 | 2.0 | 0.00 | 0.00 | 0.00 | 43 | 1012.8 |
| 20260504014435 | 50 | 102 | 0.0 | 2.0 | 0.00 | 0.00 | 0.00 | 43 | 1012.9 |
| 20260504013932 | 50 | 93 | 0.0 | 1.0 | 0.00 | 0.00 | 0.00 | 43 | 1013.0 |
| 20260504013431 | 50 | 97 | 0.0 | 2.0 | 0.00 | 0.00 | 0.00 | 43 | 1012.7 |
| 20260504012927 | 50 | 136 | 3.0 | 3.0 | 0.00 | 0.00 | 0.00 | 42 | 1012.6 |
| 20260504012425 | 51 | 135 | 2.0 | 2.0 | 0.00 | 0.00 | 0.00 | 41 | 1012.4 |
| 20260504011922 | 50 | 105 | 0.0 | 1.0 | 0.00 | 0.00 | 0.00 | 41 | 1012.6 |
| 20260504011419 | 51 | 114 | 0.0 | 2.0 | 0.00 | 0.00 | 0.00 | 41 | 1012.7 |
| 20260504010914 | 51 | 110 | 1.0 | 1.0 | 0.00 | 0.00 | 0.00 | 40 | 1012.5 |
| 20260504010411 | 51 | 52 | 1.0 | 1.0 | 0.00 | 0.00 | 0.00 | 40 | 1012.5 |
| 20260504005907 | 51 | 139 | 1.0 | 2.0 | 0.00 | 0.00 | 0.00 | 40 | 1012.4 |
| 20260504005404 | 51 | 61 | 1.0 | 1.0 | 0.00 | 0.00 | 0.00 | 40 | 1012.4 |
| 20260504004901 | 51 | 94 | 0.0 | 1.0 | 0.00 | 0.00 | 0.00 | 40 | 1012.4 |
| 20260504004359 | 52 | 121 | 1.0 | 2.0 | 0.00 | 0.00 | 0.00 | 40 | 1012.3 |
| 20260504003855 | 52 | 44 | 0.0 | 2.0 | 0.00 | 0.00 | 0.00 | 39 | 1012.2 |
| 20260504003352 | 52 | 144 | 0.0 | 2.0 | 0.00 | 0.00 | 0.00 | 39 | 1012.2 |
| 20260504002849 | 52 | 103 | 0.0 | 0.0 | 0.00 | 0.00 | 0.00 | 38 | 1012.2 |
| 20260504002346 | 53 | 77 | 0.0 | 1.0 | 0.00 | 0.00 | 0.00 | 38 | 1012.2 |
| 20260504001843 | 53 | 66 | 0.0 | 1.0 | 0.00 | 0.00 | 0.00 | 39 | 1012.0 |
| 20260504001340 | 53 | 87 | 0.0 | 1.0 | 0.00 | 0.00 | 0.00 | 39 | 1012.0 |
| 20260504000837 | 53 | 55 | 0.0 | 1.0 | 0.00 | 0.00 | 0.00 | 39 | 1011.7 |
| 20260504000334 | 53 | 141 | 0.0 | 1.0 | 0.00 | 0.00 | 0.00 | 38 | 1012.0 |
| 20260503235832 | 54 | 143 | 1.0 | 2.0 | 0.00 | 0.00 | 0.00 | 37 | 1011.8 |
| 20260503235329 | 54 | 89 | 0.0 | 1.0 | 0.00 | 0.00 | 0.00 | 38 | 1011.8 |
| 20260503234826 | 54 | 140 | 1.0 | 1.0 | 0.00 | 0.00 | 0.00 | 39 | 1012.0 |
| 20260503234324 | 54 | 157 | 0.0 | 1.0 | 0.00 | 0.00 | 0.00 | 38 | 1011.7 |
| 20260503233822 | 55 | 113 | 0.0 | 1.0 | 0.00 | 0.00 | 0.00 | 37 | 1011.6 |
| 20260503233317 | 55 | 203 | 2.0 | 2.0 | 0.00 | 0.00 | 0.00 | 36 | 1012.0 |
| 20260503232814 | 55 | 129 | 1.0 | 2.0 | 0.00 | 0.00 | 0.00 | 36 | 1011.8 |
| 20260503232312 | 55 | 89 | 0.0 | 1.0 | 0.00 | 0.00 | 0.00 | 38 | 1011.7 |
| 20260503231810 | 56 | 99 | 0.0 | 2.0 | 0.00 | 0.00 | 0.00 | 37 | 1011.7 |
| 20260503231306 | 56 | 269 | 0.0 | 2.0 | 0.00 | 0.00 | 0.00 | 38 | 1011.8 |
| 20260503230802 | 56 | 38 | 0.0 | 3.0 | 0.00 | 0.00 | 0.00 | 36 | 1011.8 |
| 20260503230259 | 56 | 262 | 2.0 | 2.0 | 0.00 | 0.00 | 0.00 | 38 | 1011.5 |
| 20260503225757 | 56 | 130 | 0.0 | 1.0 | 0.00 | 0.00 | 0.00 | 37 | 1011.7 |
| 20260503225252 | 56 | 114 | 0.0 | 2.0 | 0.00 | 0.00 | 0.00 | 36 | 1011.8 |
| 20260503224749 | 57 | 129 | 0.0 | 1.0 | 0.00 | 0.00 | 0.00 | 35 | 1011.7 |
| 20260503224247 | 57 | 3 | 2.0 | 5.0 | 0.00 | 0.00 | 0.00 | 34 | 1011.5 |
| 20260503223744 | 57 | 282 | 2.0 | 4.0 | 0.00 | 0.00 | 0.00 | 35 | 1011.8 |
| 20260503223242 | 57 | 34 | 1.0 | 2.0 | 0.00 | 0.00 | 0.00 | 35 | 1011.8 |
| 20260503222737 | 57 | 184 | 0.0 | 3.0 | 0.00 | 0.00 | 0.00 | 35 | 1011.7 |
| 20260503222236 | 56 | 352 | 2.0 | 4.0 | 0.00 | 0.00 | 0.00 | 34 | 1011.6 |
| 20260503221734 | 56 | 190 | 2.0 | 4.0 | 0.00 | 0.00 | 0.00 | 36 | 1011.5 |
| 20260503221231 | 56 | 334 | 2.0 | 7.0 | 0.00 | 0.00 | 0.00 | 35 | 1011.7 |
| 20260503220727 | 57 | 346 | 4.0 | 5.0 | 0.00 | 0.00 | 0.00 | 34 | 1011.8 |
| 20260503220225 | 57 | 291 | 0.0 | 4.0 | 0.00 | 0.00 | 0.00 | 34 | 1011.6 |
| 20260503215721 | 57 | 352 | 3.0 | 4.0 | 0.00 | 0.00 | 0.00 | 33 | 1011.8 |
| 20260503215219 | 57 | 25 | 0.0 | 6.0 | 0.00 | 0.00 | 0.00 | 34 | 1011.7 |
| 20260503214717 | 57 | 88 | 0.0 | 2.0 | 0.00 | 0.00 | 0.00 | 34 | 1011.8 |
| 20260503214213 | 57 | 188 | 2.0 | 4.0 | 0.00 | 0.00 | 0.00 | 35 | 1011.5 |
| 20260503213711 | 57 | 329 | 2.0 | 6.0 | 0.00 | 0.00 | 0.00 | 34 | 1011.6 |
| 20260503213208 | 57 | 51 | 3.0 | 6.0 | 0.00 | 0.00 | 0.00 | 33 | 1011.7 |
| 20260503212705 | 58 | 296 | 6.0 | 6.0 | 0.00 | 0.00 | 0.00 | 33 | 1011.4 |
| 20260503212202 | 57 | 345 | 4.0 | 10.0 | 0.00 | 0.00 | 0.00 | 33 | 1011.5 |
| 20260503211700 | 57 | 157 | 3.0 | 6.0 | 0.00 | 0.00 | 0.00 | 34 | 1011.8 |
| 20260503211155 | 57 | 150 | 2.0 | 4.0 | 0.00 | 0.00 | 0.00 | 34 | 1011.6 |
| 20260503210652 | 57 | 212 | 4.0 | 8.0 | 0.00 | 0.00 | 0.00 | 33 | 1011.7 |
| 20260503210149 | 58 | 350 | 7.0 | 8.0 | 0.00 | 0.00 | 0.00 | 32 | 1011.6 |
| 20260503205644 | 58 | 20 | 3.0 | 6.0 | 0.00 | 0.00 | 0.00 | 33 | 1011.4 |
| 20260503205141 | 57 | 150 | 1.0 | 4.0 | 0.00 | 0.00 | 0.00 | 33 | 1011.6 |
| 20260503204637 | 58 | 14 | 6.0 | 7.0 | 0.00 | 0.00 | 0.00 | 31 | 1011.6 |
| 20260503204135 | 59 | 24 | 1.0 | 6.0 | 0.00 | 0.00 | 0.00 | 31 | 1011.6 |
| 20260503203632 | 59 | 335 | 4.0 | 6.0 | 0.00 | 0.00 | 0.00 | 30 | 1011.6 |
| 20260503203129 | 59 | 197 | 1.0 | 4.0 | 0.00 | 0.00 | 0.00 | 32 | 1011.4 |
| 20260503202627 | 57 | 0 | 1.0 | 6.0 | 0.00 | 0.00 | 0.00 | 32 | 1011.6 |
| 20260503202124 | 56 | 13 | 0.0 | 2.0 | 0.00 | 0.00 | 0.00 | 32 | 1011.7 |
| 20260503201622 | 56 | 251 | 2.0 | 5.0 | 0.00 | 0.00 | 0.00 | 32 | 1011.7 |
| 20260503201119 | 57 | 356 | 4.0 | 9.0 | 0.00 | 0.00 | 0.00 | 31 | 1011.8 |
| 20260503200616 | 57 | 311 | 2.0 | 11.0 | 0.00 | 0.00 | 0.00 | 30 | 1011.8 |
| 20260503200112 | 58 | 340 | 4.0 | 4.0 | 0.00 | 0.00 | 0.00 | 29 | 1011.6 |
| 20260503195609 | 57 | 84 | 2.0 | 3.0 | 0.00 | 0.00 | 0.00 | 30 | 1011.7 |
| 20260503195106 | 56 | 23 | 1.0 | 8.0 | 0.00 | 0.00 | 0.00 | 30 | 1011.8 |
| 20260503194603 | 57 | 23 | 2.0 | 9.0 | 0.00 | 0.00 | 0.00 | 31 | 1012.0 |
| 20260503194058 | 57 | 343 | 7.0 | 7.0 | 0.00 | 0.00 | 0.00 | 30 | 1012.1 |
| 20260503193555 | 58 | 328 | 6.0 | 9.0 | 0.00 | 0.00 | 0.00 | 28 | 1011.8 |
| 20260503193050 | 58 | 322 | 4.0 | 8.0 | 0.00 | 0.00 | 0.00 | 28 | 1012.2 |
| 20260503192546 | 58 | 113 | 8.0 | 9.0 | 0.00 | 0.00 | 0.00 | 29 | 1012.3 |
| 20260503192043 | 58 | 283 | 4.0 | 6.0 | 0.00 | 0.00 | 0.00 | 28 | 1012.2 |
| 20260503191539 | 59 | 265 | 2.0 | 4.0 | 0.00 | 0.00 | 0.00 | 29 | 1012.4 |
| 20260503191036 | 58 | 203 | 1.0 | 4.0 | 0.00 | 0.00 | 0.00 | 29 | 1012.4 |
| 20260503190533 | 59 | 312 | 1.0 | 4.0 | 0.00 | 0.00 | 0.00 | 28 | 1012.4 |
| 20260503190030 | 58 | 300 | 3.0 | 6.0 | 0.00 | 0.00 | 0.00 | 29 | 1012.6 |